Time,TemperatureF,DewpointF,PressureIn,WindDirection,WindDirectionDegrees,WindSpeedMPH,WindSpeedGustMPH,Humidity,HourlyPrecipIn,Conditions,Clouds,dailyrainin,SoftwareType,DateUTC
2013-02-01 00:03:00,18.0,6.0,-100.00,SW,220,6.0,11.0,58,-99.99,,,-99.99,,2013-02-01 05:03:00,
2013-02-01 00:12:00,19.0,6.0,-100.00,SW,225,6.0,12.0,57,-99.99,,,-99.99,,2013-02-01 05:12:00,
2013-02-01 00:22:00,18.0,6.0,-100.00,SSW,210,6.0,14.0,57,-99.99,,,-99.99,,2013-02-01 05:22:00,
2013-02-01 00:32:00,18.0,6.0,-100.00,SW,225,5.0,12.0,56,-99.99,,,-99.99,,2013-02-01 05:32:00,
2013-02-01 00:42:00,18.0,5.0,-100.00,SW,215,7.0,16.0,56,-99.99,,,-99.99,,2013-02-01 05:42:00,
2013-02-01 00:52:00,18.0,5.0,-100.00,SW,220,7.0,14.0,56,-99.99,,,-99.99,,2013-02-01 05:52:00,
2013-02-01 01:02:00,18.0,6.0,-100.00,SW,225,5.0,11.0,57,-99.99,,,-99.99,,2013-02-01 06:02:00,
2013-02-01 01:11:00,18.0,6.0,-100.00,SW,235,6.0,12.0,57,-99.99,,,-99.99,,2013-02-01 06:11:00,
2013-02-01 01:22:00,18.0,7.0,-100.00,SW,220,10.0,14.0,61,-99.99,,,-99.99,,2013-02-01 06:22:00,
2013-02-01 01:32:00,17.0,8.0,-100.00,SW,235,4.0,10.0,66,-99.99,,,-99.99,,2013-02-01 06:32:00,
2013-02-01 01:42:00,17.0,8.0,-100.00,SW,235,4.0,10.0,66,-99.99,,,-99.99,,2013-02-01 06:42:00,
2013-02-01 01:52:00,17.0,9.0,-100.00,South,185,5.0,13.0,70,-99.99,,,-99.99,,2013-02-01 06:52:00,
2013-02-01 02:02:00,17.0,10.0,-100.00,SSW,205,6.0,11.0,74,-99.99,,,-99.99,,2013-02-01 07:02:00,
2013-02-01 02:12:00,17.0,11.0,-100.00,SW,220,6.0,12.0,78,-99.99,,,-99.99,,2013-02-01 07:12:00,
2013-02-01 02:22:00,16.0,12.0,-100.00,SSW,210,6.0,11.0,81,-99.99,,,-99.99,,2013-02-01 07:22:00,
2013-02-01 02:32:00,16.0,12.0,-100.00,SW,225,4.0,11.0,83,-99.99,,,-99.99,,2013-02-01 07:32:00,
2013-02-01 02:42:00,16.0,13.0,-100.00,SW,220,7.0,11.0,85,-99.99,,,-99.99,,2013-02-01 07:42:00,
2013-02-01 02:52:00,16.0,13.0,-100.00,SW,215,6.0,12.0,86,-99.99,,,-99.99,,2013-02-01 07:52:00,
2013-02-01 03:01:00,16.0,13.0,-100.00,SW,220,4.0,14.0,87,-99.99,,,-99.99,,2013-02-01 08:01:00,
2013-02-01 03:11:00,16.0,13.0,-100.00,SSW,195,6.0,12.0,87,-99.99,,,-99.99,,2013-02-01 08:11:00,
2013-02-01 03:21:00,16.0,13.0,-100.00,SW,215,6.0,11.0,88,-99.99,,,-99.99,,2013-02-01 08:21:00,
2013-02-01 03:32:00,16.0,13.0,-100.00,SSW,210,8.0,14.0,89,-99.99,,,-99.99,,2013-02-01 08:32:00,
2013-02-01 03:42:00,16.0,13.0,-100.00,SSW,210,6.0,12.0,89,-99.99,,,-99.99,,2013-02-01 08:42:00,
2013-02-01 03:52:00,16.0,13.0,-100.00,SSW,210,7.0,16.0,89,-99.99,,,-99.99,,2013-02-01 08:52:00,
2013-02-01 04:02:00,16.0,13.0,-100.00,SSW,195,6.0,13.0,90,-99.99,,,-99.99,,2013-02-01 09:02:00,
2013-02-01 04:11:00,15.0,13.0,-100.00,WSW,240,7.0,16.0,90,-99.99,,,-99.99,,2013-02-01 09:11:00,
2013-02-01 04:21:00,15.0,13.0,-100.00,SW,225,8.0,17.0,90,-99.99,,,-99.99,,2013-02-01 09:21:00,
2013-02-01 04:32:00,15.0,13.0,-100.00,SW,215,9.0,15.0,90,-99.99,,,-99.99,,2013-02-01 09:32:00,
2013-02-01 04:42:00,15.0,13.0,-100.00,SW,235,7.0,15.0,90,-99.99,,,-99.99,,2013-02-01 09:42:00,
2013-02-01 04:51:00,15.0,13.0,-100.00,SW,225,9.0,14.0,90,-99.99,,,-99.99,,2013-02-01 09:51:00,
2013-02-01 05:01:00,15.0,13.0,-100.00,SW,215,7.0,15.0,90,-99.99,,,-99.99,,2013-02-01 10:01:00,
2013-02-01 05:11:00,15.0,13.0,-100.00,SW,220,9.0,18.0,90,-99.99,,,-99.99,,2013-02-01 10:11:00,
2013-02-01 05:21:00,15.0,13.0,-100.00,SSW,195,7.0,15.0,90,-99.99,,,-99.99,,2013-02-01 10:21:00,
2013-02-01 05:32:00,15.0,13.0,-100.00,SW,230,9.0,14.0,90,-99.99,,,-99.99,,2013-02-01 10:32:00,
2013-02-01 05:42:00,15.0,13.0,-100.00,SW,215,9.0,16.0,90,-99.99,,,-99.99,,2013-02-01 10:42:00,
2013-02-01 05:52:00,15.0,12.0,-100.00,SW,235,7.0,15.0,90,-99.99,,,-99.99,,2013-02-01 10:52:00,
2013-02-01 06:02:00,15.0,13.0,-100.00,SSW,210,7.0,14.0,90,-99.99,,,-99.99,,2013-02-01 11:02:00,
2013-02-01 06:11:00,15.0,12.0,-100.00,SW,220,9.0,18.0,90,-99.99,,,-99.99,,2013-02-01 11:11:00,
2013-02-01 06:22:00,14.0,12.0,-100.00,SW,230,7.0,18.0,90,-99.99,,,-99.99,,2013-02-01 11:22:00,
2013-02-01 06:32:00,14.0,12.0,-100.00,SW,220,11.0,19.0,90,-99.99,,,-99.99,,2013-02-01 11:32:00,
2013-02-01 06:42:00,14.0,12.0,-100.00,SW,230,7.0,12.0,90,-99.99,,,-99.99,,2013-02-01 11:42:00,
2013-02-01 06:53:00,14.0,12.0,-100.00,SSW,200,8.0,18.0,90,-99.99,,,-99.99,,2013-02-01 11:53:00,
2013-02-01 07:03:00,14.0,12.0,-100.00,SW,235,7.0,17.0,90,-99.99,,,-99.99,,2013-02-01 12:03:00,
2013-02-01 07:12:00,14.0,12.0,-100.00,SW,215,11.0,17.0,90,-99.99,,,-99.99,,2013-02-01 12:12:00,
2013-02-01 07:22:00,14.0,11.0,-100.00,SW,220,6.0,19.0,90,-99.99,,,-99.99,,2013-02-01 12:22:00,
2013-02-01 07:32:00,13.0,11.0,-100.00,SSW,210,7.0,17.0,90,-99.99,,,-99.99,,2013-02-01 12:32:00,
2013-02-01 07:42:00,13.0,11.0,-100.00,SW,215,7.0,16.0,90,-99.99,,,-99.99,,2013-02-01 12:42:00,
2013-02-01 07:52:00,13.0,11.0,-100.00,SW,220,10.0,16.0,90,-99.99,,,-99.99,,2013-02-01 12:52:00,
2013-02-01 08:02:00,13.0,11.0,-100.00,SW,230,5.0,16.0,90,-99.99,,,-99.99,,2013-02-01 13:02:00,
2013-02-01 08:11:00,12.0,10.0,-100.00,SSW,205,10.0,17.0,90,-99.99,,,-99.99,,2013-02-01 13:11:00,
2013-02-01 08:22:00,12.0,10.0,-100.00,SSW,200,7.0,16.0,89,-99.99,,,-99.99,,2013-02-01 13:22:00,
2013-02-01 08:33:00,12.0,9.0,-100.00,SSW,205,7.0,22.0,87,-99.99,,,-99.99,,2013-02-01 13:33:00,
2013-02-01 08:42:00,12.0,9.0,-100.00,SW,225,10.0,22.0,87,-99.99,,,-99.99,,2013-02-01 13:42:00,
2013-02-01 08:52:00,12.0,9.0,-100.00,SW,215,7.0,12.0,86,-99.99,,,-99.99,,2013-02-01 13:52:00,
2013-02-01 09:03:00,12.0,9.0,-100.00,SSW,200,9.0,18.0,85,-99.99,,,-99.99,,2013-02-01 14:03:00,
2013-02-01 09:11:00,12.0,9.0,-100.00,SW,215,6.0,14.0,85,-99.99,,,-99.99,,2013-02-01 14:11:00,
2013-02-01 09:22:00,13.0,9.0,-100.00,SW,230,6.0,17.0,84,-99.99,,,-99.99,,2013-02-01 14:22:00,
2013-02-01 09:32:00,13.0,9.0,-100.00,SW,215,12.0,19.0,83,-99.99,,,-99.99,,2013-02-01 14:32:00,
2013-02-01 09:42:00,13.0,9.0,-100.00,SSW,200,6.0,16.0,83,-99.99,,,-99.99,,2013-02-01 14:42:00,
2013-02-01 09:52:00,13.0,9.0,-100.00,SSW,210,8.0,17.0,82,-99.99,,,-99.99,,2013-02-01 14:52:00,
2013-02-01 10:02:00,13.0,9.0,-100.00,SSW,210,7.0,17.0,82,-99.99,,,-99.99,,2013-02-01 15:02:00,
2013-02-01 10:12:00,13.0,9.0,-100.00,SW,230,6.0,15.0,82,-99.99,,,-99.99,,2013-02-01 15:12:00,
2013-02-01 10:22:00,13.0,9.0,-100.00,SW,215,7.0,14.0,82,-99.99,,,-99.99,,2013-02-01 15:22:00,
2013-02-01 10:33:00,13.0,9.0,-100.00,SSW,205,10.0,14.0,83,-99.99,,,-99.99,,2013-02-01 15:33:00,
2013-02-01 10:42:00,13.0,9.0,-100.00,SW,220,7.0,14.0,84,-99.99,,,-99.99,,2013-02-01 15:42:00,
2013-02-01 10:52:00,14.0,10.0,-100.00,SW,215,9.0,16.0,84,-99.99,,,-99.99,,2013-02-01 15:52:00,
2013-02-01 11:03:00,14.0,10.0,-100.00,SW,220,6.0,19.0,84,-99.99,,,-99.99,,2013-02-01 16:03:00,
2013-02-01 11:11:00,14.0,10.0,-100.00,SW,215,10.0,19.0,83,-99.99,,,-99.99,,2013-02-01 16:11:00,
2013-02-01 11:22:00,15.0,9.0,-100.00,SW,220,10.0,18.0,79,-99.99,,,-99.99,,2013-02-01 16:22:00,
2013-02-01 11:33:00,16.0,9.0,-100.00,SSW,195,9.0,24.0,75,-99.99,,,-99.99,,2013-02-01 16:33:00,
2013-02-01 11:43:00,16.0,8.0,-100.00,SW,235,12.0,23.0,71,-99.99,,,-99.99,,2013-02-01 16:43:00,
2013-02-01 11:52:00,15.0,7.0,-100.00,SW,230,14.0,25.0,69,-99.99,,,-99.99,,2013-02-01 16:52:00,
2013-02-01 12:03:00,17.0,8.0,-100.00,SSW,205,7.0,21.0,67,-99.99,,,-99.99,,2013-02-01 17:03:00,
2013-02-01 12:12:00,16.0,7.0,-100.00,SW,215,11.0,18.0,66,-99.99,,,-99.99,,2013-02-01 17:12:00,
2013-02-01 12:22:00,17.0,7.0,-100.00,SW,225,11.0,19.0,64,-99.99,,,-99.99,,2013-02-01 17:22:00,
2013-02-01 12:32:00,18.0,8.0,-100.00,SW,220,7.0,20.0,64,-99.99,,,-99.99,,2013-02-01 17:32:00,
2013-02-01 12:42:00,17.0,7.0,-100.00,SW,220,10.0,20.0,64,-99.99,,,-99.99,,2013-02-01 17:42:00,
2013-02-01 12:52:00,17.0,7.0,-100.00,SW,220,11.0,18.0,63,-99.99,,,-99.99,,2013-02-01 17:52:00,
2013-02-01 13:03:00,17.0,7.0,-100.00,SW,225,7.0,22.0,63,-99.99,,,-99.99,,2013-02-01 18:03:00,
2013-02-01 13:12:00,17.0,6.0,-100.00,SSW,210,9.0,19.0,63,-99.99,,,-99.99,,2013-02-01 18:12:00,
2013-02-01 13:22:00,16.0,6.0,-100.00,SW,220,10.0,23.0,62,-99.99,,,-99.99,,2013-02-01 18:22:00,
2013-02-01 13:32:00,16.0,6.0,-100.00,SW,230,9.0,17.0,62,-99.99,,,-99.99,,2013-02-01 18:32:00,
2013-02-01 13:42:00,16.0,6.0,-100.00,SW,225,12.0,17.0,63,-99.99,,,-99.99,,2013-02-01 18:42:00,
2013-02-01 13:52:00,17.0,6.0,-100.00,SW,220,7.0,18.0,63,-99.99,,,-99.99,,2013-02-01 18:52:00,
2013-02-01 14:03:00,17.0,7.0,-100.00,SSW,205,10.0,18.0,63,-99.99,,,-99.99,,2013-02-01 19:03:00,
2013-02-01 14:12:00,17.0,7.0,-100.00,SW,215,9.0,17.0,63,-99.99,,,-99.99,,2013-02-01 19:12:00,
2013-02-01 14:21:00,17.0,6.0,-100.00,SW,215,9.0,13.0,62,-99.99,,,-99.99,,2013-02-01 19:21:00,
2013-02-01 14:32:00,17.0,6.0,-100.00,SSW,210,6.0,14.0,61,-99.99,,,-99.99,,2013-02-01 19:32:00,
2013-02-01 14:42:00,17.0,6.0,-100.00,SW,230,7.0,17.0,62,-99.99,,,-99.99,,2013-02-01 19:42:00,
2013-02-01 14:51:00,17.0,7.0,-100.00,SSW,200,4.0,19.0,62,-99.99,,,-99.99,,2013-02-01 19:51:00,
2013-02-01 15:02:00,18.0,7.0,-100.00,South,180,7.0,12.0,61,-99.99,,,-99.99,,2013-02-01 20:02:00,
2013-02-01 15:11:00,17.0,6.0,-100.00,SSW,205,7.0,15.0,60,-99.99,,,-99.99,,2013-02-01 20:11:00,
2013-02-01 15:21:00,18.0,7.0,-100.00,SW,230,5.0,17.0,62,-99.99,,,-99.99,,2013-02-01 20:21:00,
2013-02-01 15:32:00,18.0,8.0,-100.00,SSW,210,6.0,14.0,65,-99.99,,,-99.99,,2013-02-01 20:32:00,
2013-02-01 15:42:00,17.0,7.0,-100.00,SW,220,7.0,15.0,64,-99.99,,,-99.99,,2013-02-01 20:42:00,
2013-02-01 15:52:00,17.0,7.0,-100.00,SSW,210,9.0,15.0,63,-99.99,,,-99.99,,2013-02-01 20:52:00,
2013-02-01 16:02:00,18.0,7.0,-100.00,SSE,165,4.0,15.0,62,-99.99,,,-99.99,,2013-02-01 21:02:00,
2013-02-01 16:12:00,18.0,7.0,-100.00,SSE,160,7.0,14.0,60,-99.99,,,-99.99,,2013-02-01 21:12:00,
2013-02-01 16:21:00,18.0,6.0,-100.00,South,190,6.0,19.0,58,-99.99,,,-99.99,,2013-02-01 21:21:00,
2013-02-01 16:32:00,17.0,5.0,-100.00,SW,220,4.0,15.0,57,-99.99,,,-99.99,,2013-02-01 21:32:00,
2013-02-01 16:42:00,17.0,5.0,-100.00,SSW,210,6.0,12.0,57,-99.99,,,-99.99,,2013-02-01 21:42:00,
2013-02-01 16:52:00,16.0,4.0,-100.00,SSW,200,6.0,12.0,58,-99.99,,,-99.99,,2013-02-01 21:52:00,
2013-02-01 17:02:00,16.0,6.0,-100.00,SSW,210,3.0,11.0,63,-99.99,,,-99.99,,2013-02-01 22:02:00,
2013-02-01 17:11:00,16.0,6.0,-100.00,South,185,3.0,9.0,65,-99.99,,,-99.99,,2013-02-01 22:11:00,
2013-02-01 17:21:00,16.0,6.0,-100.00,SW,215,7.0,11.0,65,-99.99,,,-99.99,,2013-02-01 22:21:00,
2013-02-01 17:32:00,16.0,6.0,-100.00,SW,215,7.0,14.0,64,-99.99,,,-99.99,,2013-02-01 22:32:00,
2013-02-01 17:42:00,16.0,6.0,-100.00,South,175,3.0,9.0,65,-99.99,,,-99.99,,2013-02-01 22:42:00,
2013-02-01 17:51:00,15.0,6.0,-100.00,South,185,6.0,12.0,65,-99.99,,,-99.99,,2013-02-01 22:51:00,
2013-02-01 18:02:00,15.0,5.0,-100.00,South,185,5.0,10.0,64,-99.99,,,-99.99,,2013-02-01 23:02:00,
2013-02-01 18:11:00,15.0,5.0,-100.00,South,190,4.0,11.0,63,-99.99,,,-99.99,,2013-02-01 23:11:00,
2013-02-01 18:21:00,15.0,5.0,-100.00,SW,215,4.0,10.0,63,-99.99,,,-99.99,,2013-02-01 23:21:00,
2013-02-01 18:32:00,15.0,5.0,-100.00,SSW,195,5.0,9.0,63,-99.99,,,-99.99,,2013-02-01 23:32:00,
2013-02-01 18:42:00,15.0,6.0,-100.00,SW,220,4.0,10.0,65,-99.99,,,-99.99,,2013-02-01 23:42:00,
2013-02-01 18:52:00,15.0,6.0,-100.00,SSW,205,2.0,8.0,65,-99.99,,,-99.99,,2013-02-01 23:52:00,
2013-02-01 19:02:00,15.0,6.0,-100.00,South,180,6.0,11.0,65,-99.99,,,-99.99,,2013-02-02 00:02:00,
2013-02-01 19:11:00,15.0,6.0,-100.00,SSW,210,4.0,10.0,66,-99.99,,,-99.99,,2013-02-02 00:11:00,
2013-02-01 19:21:00,15.0,6.0,-100.00,SW,215,2.0,9.0,67,-99.99,,,-99.99,,2013-02-02 00:21:00,
2013-02-01 19:32:00,15.0,7.0,-100.00,SSW,200,4.0,7.0,68,-99.99,,,-99.99,,2013-02-02 00:32:00,
2013-02-01 19:42:00,15.0,6.0,-100.00,SW,220,3.0,12.0,66,-99.99,,,-99.99,,2013-02-02 00:42:00,
2013-02-01 19:52:00,15.0,6.0,-100.00,SSW,210,3.0,6.0,66,-99.99,,,-99.99,,2013-02-02 00:52:00,
2013-02-01 20:02:00,15.0,5.0,-100.00,SSW,205,6.0,12.0,64,-99.99,,,-99.99,,2013-02-02 01:02:00,
2013-02-01 20:11:00,15.0,5.0,-100.00,SSW,205,6.0,12.0,64,-99.99,,,-99.99,,2013-02-02 01:11:00,
2013-02-01 20:21:00,15.0,5.0,-100.00,South,175,4.0,14.0,63,-99.99,,,-99.99,,2013-02-02 01:21:00,
2013-02-01 20:32:00,15.0,5.0,-100.00,South,190,3.0,11.0,63,-99.99,,,-99.99,,2013-02-02 01:32:00,
2013-02-01 20:42:00,15.0,4.0,-100.00,SSW,210,3.0,9.0,62,-99.99,,,-99.99,,2013-02-02 01:42:00,
2013-02-01 20:52:00,15.0,4.0,-100.00,SW,225,6.0,14.0,60,-99.99,,,-99.99,,2013-02-02 01:52:00,
2013-02-01 21:01:00,15.0,4.0,-100.00,SSW,195,4.0,9.0,60,-99.99,,,-99.99,,2013-02-02 02:01:00,
2013-02-01 21:11:00,15.0,4.0,-100.00,SW,215,6.0,12.0,60,-99.99,,,-99.99,,2013-02-02 02:11:00,
2013-02-01 21:21:00,15.0,4.0,-100.00,SW,230,9.0,13.0,61,-99.99,,,-99.99,,2013-02-02 02:21:00,
2013-02-01 21:32:00,14.0,4.0,-100.00,South,190,7.0,12.0,62,-99.99,,,-99.99,,2013-02-02 02:32:00,
2013-02-01 21:42:00,14.0,3.0,-100.00,SW,215,7.0,15.0,61,-99.99,,,-99.99,,2013-02-02 02:42:00,
2013-02-01 21:52:00,14.0,3.0,-100.00,SW,225,7.0,19.0,61,-99.99,,,-99.99,,2013-02-02 02:52:00,
2013-02-01 22:02:00,14.0,3.0,-100.00,South,185,6.0,14.0,61,-99.99,,,-99.99,,2013-02-02 03:02:00,
2013-02-01 22:11:00,14.0,3.0,-100.00,SSW,210,6.0,10.0,62,-99.99,,,-99.99,,2013-02-02 03:11:00,
2013-02-01 22:22:00,14.0,4.0,-100.00,SW,230,4.0,10.0,63,-99.99,,,-99.99,,2013-02-02 03:22:00,
2013-02-01 22:32:00,14.0,4.0,-100.00,SSW,205,2.0,7.0,63,-99.99,,,-99.99,,2013-02-02 03:32:00,
2013-02-01 22:42:00,14.0,4.0,-100.00,SSW,200,2.0,7.0,64,-99.99,,,-99.99,,2013-02-02 03:42:00,
2013-02-01 22:52:00,14.0,5.0,-100.00,SW,215,4.0,7.0,66,-99.99,,,-99.99,,2013-02-02 03:52:00,
2013-02-01 23:02:00,14.0,5.0,-100.00,SSW,195,1.0,6.0,67,-99.99,,,-99.99,,2013-02-02 04:02:00,
2013-02-01 23:11:00,13.0,5.0,-100.00,SSW,195,4.0,9.0,67,-99.99,,,-99.99,,2013-02-02 04:11:00,
2013-02-01 23:21:00,13.0,5.0,-100.00,SSW,195,2.0,10.0,67,-99.99,,,-99.99,,2013-02-02 04:21:00,
2013-02-01 23:32:00,13.0,5.0,-100.00,SSW,200,6.0,11.0,67,-99.99,,,-99.99,,2013-02-02 04:32:00,
2013-02-01 23:42:00,13.0,5.0,-100.00,SSW,195,1.0,5.0,67,-99.99,,,-99.99,,2013-02-02 04:42:00,
2013-02-01 23:52:00,13.0,4.0,-100.00,SSW,210,2.0,7.0,67,-99.99,,,-99.99,,2013-02-02 04:52:00,